Regional Weather Roundup
Issued by NWS Huntsville, AL

Current Version | Previous Version | Graphics & Text | Print | Product List | Glossary On
Versions: 1 2 3 4 5 6 7 8 9 10 11 12 13 14 15 16 17 18 19 20 21 22 23 24 25 26 27 28 29 30 31 32 33 34 35 36 37 38 39 40 41 42 43 44 45 46 47 48 49 50
647
ASUS44 KHUN 151610
RWRHUN

WEATHER ROUNDUP FOR THE TENNESSEE VALLEY
NATIONAL WEATHER SERVICE HUNTSVILLE AL
1100 AM CDT SUN SEP 15 2019

ALZ001>004-151700-
NORTHWEST ALABAMA

CITY           SKY/WX    TMP DP  RH WIND       PRES   REMARKS
SHOALS AIRPORT FAIR      90  71  53 CALM      30.17F HX  96
$$

ALZ005>007-016-151700-
NORTH CENTRAL ALABAMA

CITY           SKY/WX    TMP DP  RH WIND       PRES   REMARKS
DECATUR AP     FAIR      88  71  57 VRB3      30.18F HX  94
HUNTSVILLE AP  FAIR      87  71  58 VRB3      30.18F HX  93
MERIDIANVILLE  SUNNY     85  70  60 S5        30.19F HX  90
VINEMONT AP    FAIR      86  68  55 N3        30.21F
$$

ALZ008>010-151700-
NORTHEAST ALABAMA

CITY           SKY/WX    TMP DP  RH WIND       PRES   REMARKS
ALBERTVILLE    FAIR      82  68  61 NE3       30.19F
FORT PAYNE     FAIR      84  70  63 SW3       30.17F
SCOTTSBORO AP  FAIR      86  72  62 N6        30.18F HX  92
$$

TNZ076-096-097-151700-
SOUTHEASTERN MIDDLE TENNESSEE

CITY           SKY/WX    TMP DP  RH WIND       PRES   REMARKS
FAYETTEVILLE   SUNNY     84  72  65 CALM      30.19S
TULLAHOMA      SUNNY     84  70  61 CALM      30.19F
WINCHESTER     SUNNY     86  68  54 N7        30.19S
$$

...SURROUNDING SITES...

CITY           SKY/WX    TMP DP  RH WIND       PRES   REMARKS
ATLANTA        PTSUNNY   84  68  58 E8        30.18F
ANNISTON       FAIR      85  69  58 NE6       30.16F
BIRMINGHAM     FAIR      85  70  60 VRB3      30.18F
CHATTANOOGA    FAIR      88  67  49 NW6       30.19F HX  91
CORINTH        FAIR      88  70  55 CALM      30.16F HX  92
DALTON         NOT AVBL
GADSDEN        FAIR      84  71  65 CALM      30.17F
GOLDEN TRNGL   FAIR      86  72  62 VRB3      30.15F HX  92
HALEYVILLE     FAIR      86  72  62 NE3       30.21S HX  92
JACKSON TN     FAIR      88  73  61 S5        30.17F HX  95
MEMPHIS        FAIR      89  72  56 VRB6      30.15F HX  96
NASHVILLE      FAIR      90  66  45 CALM      30.18F HX  92
OXFORD MS      FAIR      86  68  54 VRB3      30.17S
ROME           FAIR      86  69  56 CALM      30.17F HX  90
SAVANNAH       SUNNY     88  72  58 CALM      30.16F HX  94
SELMER         SUNNY     88  72  58 VRB7      30.17S HX  94
TUPELO         FAIR      88  69  53 S5        30.15F HX  92
TUSCALOOSA     FAIR      88  70  55 E3        30.14F HX  93
$$





USA.gov is the U.S. government's official web portal to all federal, state and local government web resources and services.